Tracking 19212 objects as of 17-Jul-2018
HD Live streaming from Space Station
objects crossing your sky now

FENGYUN 1C DEB

Track FENGYUN 1C DEB now!
10-day predictions


NORAD ID: 30705
Int'l Code: 1999-025ARP
Perigee: 842.3 km
Apogee: 1,166.4 km
Inclination: 102.2 °
Period: 105.1 minutes
Semi major axis: 7375 km
RCS: 0.0153 m2 (small)
Launch date: May 10, 1999
Source: People's Republic of China (PRC)
Launch site: Taiyaun Space Center, China (TSC)

Note: This is SATELLITE DEBRIS
aabbcc
Your satellite tracking list
Your tracking list is empty




NASA's NSSDC Master Catalog

Two Line Element Set (TLE):
1 30705U 99025ARP 18196.38265372  .00000348  00000-0  39211-3 0  9995
2 30705 102.2045 245.6332 0219724 146.7727 274.5776 13.70646852568734
Source of the keplerian elements: AFSPC